contact:dominique.lefevre@mio.osupytheas.fr, maurice.libes@osupytheas.fr, didier.mallarino@osupytheas.fr
Project:EMSO http://www.emso-fr.org/EMSO-France
Depth: 2436.0 m
Title:EMSO Ligure Ouest : Data MII capteur MICROCAT
DateTime_Computer,Latitude,Longitude,Temperature,Conductivity,Pressure,DateTime_Instrument
DateTime_Computer,Latitude,Longitude,degC,S m-1,dbar,DateTime_Instrument
2020-08-31T00:01:38Z,42.805,6.029,13.2979,4.60011,2470.087,2020-8-31T02:02:29Z
2020-08-31T00:04:41Z,42.805,6.029,13.2982,4.60002,2470.063,2020-8-31T02:05:32Z
2020-08-31T00:07:45Z,42.805,6.029,13.2980,4.59999,2470.11,2020-8-31T02:08:35Z
2020-08-31T00:10:48Z,42.805,6.029,13.2988,4.59998,2470.087,2020-8-31T02:11:38Z
2020-08-31T00:13:51Z,42.805,6.029,13.2984,4.60019,2470.053,2020-8-31T02:14:42Z
2020-08-31T00:16:54Z,42.805,6.029,13.2977,4.59994,2470.087,2020-8-31T02:17:45Z
2020-08-31T00:19:58Z,42.805,6.029,13.2990,4.59992,2470.063,2020-8-31T02:20:48Z
2020-08-31T00:23:01Z,42.805,6.029,13.2977,4.59987,2470.11,2020-8-31T02:23:51Z
2020-08-31T00:26:04Z,42.805,6.029,13.2976,4.59999,2470.053,2020-8-31T02:26:55Z
2020-08-31T00:29:08Z,42.805,6.029,13.2980,4.60004,2470.063,2020-8-31T02:29:58Z
2020-08-31T00:32:11Z,42.805,6.029,13.2979,4.59995,2470.03,2020-8-31T02:33:01Z
2020-08-31T00:35:14Z,42.805,6.029,13.2982,4.60011,2470.017,2020-8-31T02:36:05Z
2020-08-31T00:38:17Z,42.805,6.029,13.2976,4.59991,2470.04,2020-8-31T02:39:08Z
2020-08-31T00:41:21Z,42.805,6.029,13.2975,4.59988,2470.063,2020-8-31T02:42:11Z
2020-08-31T00:44:24Z,42.805,6.029,13.2982,4.59994,2470.017,2020-8-31T02:45:14Z
2020-08-31T00:47:27Z,42.805,6.029,13.2979,4.60003,2470.053,2020-8-31T02:48:18Z
2020-08-31T00:50:30Z,42.805,6.029,13.2979,4.60002,2470.026,2020-8-31T02:51:21Z
2020-08-31T00:53:34Z,42.805,6.029,13.2987,4.60019,2470.017,2020-8-31T02:54:24Z
2020-08-31T00:56:37Z,42.805,6.029,13.2983,4.60013,2470.03,2020-8-31T02:57:27Z
2020-08-31T00:59:40Z,42.805,6.029,13.2990,4.59999,2470.04,2020-8-31T03:00:31Z
2020-08-31T01:02:44Z,42.805,6.029,13.2982,4.60009,2470.04,2020-8-31T03:03:34Z
2020-08-31T01:05:47Z,42.805,6.029,13.2982,4.60009,2470.03,2020-8-31T03:06:37Z
2020-08-31T01:08:50Z,42.805,6.029,13.2985,4.60016,2470.04,2020-8-31T03:09:41Z
2020-08-31T01:11:53Z,42.805,6.029,13.2986,4.60035,2470.063,2020-8-31T03:12:44Z
2020-08-31T01:14:57Z,42.805,6.029,13.2976,4.60001,2470.077,2020-8-31T03:15:47Z
2020-08-31T01:18:00Z,42.805,6.029,13.2977,4.59996,2470.053,2020-8-31T03:18:50Z
2020-08-31T01:21:03Z,42.805,6.029,13.2977,4.59993,2470.053,2020-8-31T03:21:54Z
2020-08-31T01:24:06Z,42.805,6.029,13.2982,4.59994,2470.077,2020-8-31T03:24:57Z
2020-08-31T01:27:10Z,42.805,6.029,13.2982,4.59997,2470.017,2020-8-31T03:28:00Z
2020-08-31T01:30:13Z,42.805,6.029,13.2977,4.59993,2470.053,2020-8-31T03:31:04Z
2020-08-31T01:33:16Z,42.805,6.029,13.2982,4.60009,2470.077,2020-8-31T03:34:07Z
2020-08-31T01:36:20Z,42.805,6.029,13.2979,4.59991,2470.063,2020-8-31T03:37:10Z
2020-08-31T01:39:23Z,42.805,6.029,13.2981,4.59988,2470.063,2020-8-31T03:40:14Z
2020-08-31T01:42:26Z,42.805,6.029,13.2983,4.59994,2470.063,2020-8-31T03:43:17Z
2020-08-31T01:45:30Z,42.805,6.029,13.2971,4.59988,2470.063,2020-8-31T03:46:20Z
2020-08-31T01:48:33Z,42.805,6.029,13.2993,4.60009,2470.077,2020-8-31T03:49:23Z
2020-08-31T01:51:37Z,42.805,6.029,13.2981,4.59993,2470.087,2020-8-31T03:52:28Z
2020-08-31T01:54:41Z,42.805,6.029,13.2977,4.59994,2470.04,2020-8-31T03:55:31Z
2020-08-31T01:57:44Z,42.805,6.029,13.2979,4.59994,2470.063,2020-8-31T03:58:34Z
2020-08-31T02:00:47Z,42.805,6.029,13.2985,4.59993,2470.04,2020-8-31T04:01:37Z
2020-08-31T02:03:50Z,42.805,6.029,13.2984,4.59998,2470.063,2020-8-31T04:04:41Z
2020-08-31T02:06:54Z,42.805,6.029,13.2977,4.59988,2470.04,2020-8-31T04:07:44Z
2020-08-31T02:09:57Z,42.805,6.029,13.2976,4.59988,2470.077,2020-8-31T04:10:47Z
2020-08-31T02:13:00Z,42.805,6.029,13.2975,4.59999,2470.063,2020-8-31T04:13:51Z
2020-08-31T02:16:04Z,42.805,6.029,13.2976,4.60010,2470.087,2020-8-31T04:16:54Z
2020-08-31T02:19:07Z,42.805,6.029,13.2986,4.60011,2470.053,2020-8-31T04:19:57Z
2020-08-31T02:22:10Z,42.805,6.029,13.2974,4.60005,2470.053,2020-8-31T04:23:01Z
2020-08-31T02:25:13Z,42.805,6.029,13.2981,4.59998,2470.063,2020-8-31T04:26:04Z
2020-08-31T02:28:17Z,42.805,6.029,13.2983,4.60016,2470.063,2020-8-31T04:29:07Z
2020-08-31T02:31:20Z,42.805,6.029,13.2983,4.60003,2470.1,2020-8-31T04:32:10Z
2020-08-31T02:34:23Z,42.805,6.029,13.2976,4.59991,2470.1,2020-8-31T04:35:14Z
2020-08-31T02:37:26Z,42.805,6.029,13.2983,4.60007,2470.087,2020-8-31T04:38:17Z
2020-08-31T02:40:30Z,42.805,6.029,13.2978,4.59992,2470.087,2020-8-31T04:41:20Z
2020-08-31T02:43:33Z,42.805,6.029,13.2976,4.59992,2470.053,2020-8-31T04:44:24Z
2020-08-31T02:46:37Z,42.805,6.029,13.2984,4.60013,2470.053,2020-8-31T04:47:27Z
2020-08-31T02:49:40Z,42.805,6.029,13.2981,4.59994,2470.1,2020-8-31T04:50:30Z
2020-08-31T02:52:43Z,42.805,6.029,13.2976,4.59993,2470.053,2020-8-31T04:53:34Z
2020-08-31T02:55:46Z,42.805,6.029,13.2974,4.59991,2470.063,2020-8-31T04:56:37Z
2020-08-31T02:58:50Z,42.805,6.029,13.2979,4.60000,2470.087,2020-8-31T04:59:40Z
2020-08-31T03:01:54Z,42.805,6.029,13.2974,4.59996,2470.11,2020-8-31T05:02:45Z
2020-08-31T03:04:57Z,42.805,6.029,13.2975,4.59986,2470.04,2020-8-31T05:05:48Z
2020-08-31T03:08:01Z,42.805,6.029,13.2979,4.60033,2470.063,2020-8-31T05:08:51Z
2020-08-31T03:11:04Z,42.805,6.029,13.2993,4.59988,2470.1,2020-8-31T05:11:54Z
2020-08-31T03:14:07Z,42.805,6.029,13.2980,4.59995,2470.124,2020-8-31T05:14:58Z
2020-08-31T03:17:10Z,42.805,6.029,13.2979,4.59996,2470.063,2020-8-31T05:18:01Z
2020-08-31T03:20:14Z,42.805,6.029,13.2976,4.59996,2470.077,2020-8-31T05:21:04Z
2020-08-31T03:23:17Z,42.805,6.029,13.2985,4.59983,2470.124,2020-8-31T05:24:08Z
2020-08-31T03:26:21Z,42.805,6.029,13.2980,4.59997,2470.1,2020-8-31T05:27:11Z
2020-08-31T03:29:24Z,42.805,6.029,13.2989,4.60001,2470.087,2020-8-31T05:30:14Z
2020-08-31T03:32:27Z,42.805,6.029,13.2983,4.60007,2470.11,2020-8-31T05:33:18Z
2020-08-31T03:35:31Z,42.805,6.029,13.2986,4.59992,2470.124,2020-8-31T05:36:21Z
2020-08-31T03:38:34Z,42.805,6.029,13.2981,4.60009,2470.124,2020-8-31T05:39:24Z
2020-08-31T03:41:37Z,42.805,6.029,13.2980,4.59993,2470.1,2020-8-31T05:42:27Z
2020-08-31T03:44:40Z,42.805,6.029,13.2976,4.59997,2470.124,2020-8-31T05:45:31Z
2020-08-31T03:47:43Z,42.805,6.029,13.2976,4.59988,2470.087,2020-8-31T05:48:34Z
2020-08-31T03:50:47Z,42.805,6.029,13.2979,4.59995,2470.11,2020-8-31T05:51:38Z
2020-08-31T03:53:51Z,42.805,6.029,13.2979,4.59996,2470.124,2020-8-31T05:54:41Z
2020-08-31T03:56:54Z,42.805,6.029,13.2980,4.60021,2470.11,2020-8-31T05:57:44Z
2020-08-31T03:59:57Z,42.805,6.029,13.2976,4.60010,2470.087,2020-8-31T06:00:48Z
2020-08-31T04:03:01Z,42.805,6.029,13.2987,4.60026,2470.1,2020-8-31T06:03:51Z
2020-08-31T04:06:04Z,42.805,6.029,13.2973,4.60008,2470.124,2020-8-31T06:06:54Z
2020-08-31T04:09:07Z,42.805,6.029,13.2982,4.60005,2470.11,2020-8-31T06:09:58Z
2020-08-31T04:12:10Z,42.805,6.029,13.2974,4.60017,2470.133,2020-8-31T06:13:01Z
2020-08-31T04:15:14Z,42.805,6.029,13.2978,4.60005,2470.171,2020-8-31T06:16:04Z
2020-08-31T04:18:17Z,42.805,6.029,13.2976,4.59989,2470.133,2020-8-31T06:19:07Z
2020-08-31T04:21:20Z,42.805,6.029,13.2977,4.60009,2470.133,2020-8-31T06:22:11Z
2020-08-31T04:24:23Z,42.805,6.029,13.2992,4.60015,2470.171,2020-8-31T06:25:14Z
2020-08-31T04:27:27Z,42.805,6.029,13.2989,4.60019,2470.133,2020-8-31T06:28:17Z
2020-08-31T04:30:30Z,42.805,6.029,13.2996,4.60039,2470.156,2020-8-31T06:31:20Z
2020-08-31T04:33:33Z,42.805,6.029,13.2989,4.60022,2470.11,2020-8-31T06:34:23Z
2020-08-31T04:36:36Z,42.805,6.029,13.2982,4.60021,2470.171,2020-8-31T06:37:27Z
2020-08-31T04:39:40Z,42.805,6.029,13.2988,4.60019,2470.133,2020-8-31T06:40:30Z
2020-08-31T04:42:43Z,42.805,6.029,13.2984,4.60013,2470.11,2020-8-31T06:43:33Z
2020-08-31T04:45:46Z,42.805,6.029,13.2995,4.60016,2470.133,2020-8-31T06:46:37Z
2020-08-31T04:48:49Z,42.805,6.029,13.3003,4.60014,2470.171,2020-8-31T06:49:40Z
2020-08-31T04:51:53Z,42.805,6.029,13.2989,4.60025,2470.133,2020-8-31T06:52:43Z
2020-08-31T04:54:56Z,42.805,6.029,13.2980,4.60014,2470.156,2020-8-31T06:55:46Z
2020-08-31T04:57:59Z,42.805,6.029,13.2975,4.60014,2470.11,2020-8-31T06:58:49Z
2020-08-31T05:01:02Z,42.805,6.029,13.2984,4.60033,2470.156,2020-8-31T07:01:53Z
2020-08-31T05:04:05Z,42.805,6.029,13.2991,4.60029,2470.194,2020-8-31T07:04:56Z
2020-08-31T05:07:09Z,42.805,6.029,13.2981,4.60015,2470.156,2020-8-31T07:07:59Z
2020-08-31T05:10:12Z,42.805,6.029,13.2986,4.60026,2470.133,2020-8-31T07:11:02Z
2020-08-31T05:13:15Z,42.805,6.029,13.2993,4.60047,2470.194,2020-8-31T07:14:06Z
2020-08-31T05:16:19Z,42.805,6.029,13.2985,4.60021,2470.194,2020-8-31T07:17:09Z
2020-08-31T05:19:22Z,42.805,6.029,13.2979,4.60014,2470.133,2020-8-31T07:20:12Z
2020-08-31T05:22:25Z,42.805,6.029,13.2982,4.60012,2470.147,2020-8-31T07:23:16Z
2020-08-31T05:25:29Z,42.805,6.029,13.2980,4.60006,2470.124,2020-8-31T07:26:19Z
2020-08-31T05:28:32Z,42.805,6.029,13.2983,4.60021,2470.156,2020-8-31T07:29:22Z
2020-08-31T05:31:35Z,42.805,6.029,13.2991,4.60013,2470.156,2020-8-31T07:32:26Z
2020-08-31T05:34:39Z,42.805,6.029,13.2982,4.60006,2470.18,2020-8-31T07:35:29Z
2020-08-31T05:37:42Z,42.805,6.029,13.2991,4.60022,2470.217,2020-8-31T07:38:32Z
2020-08-31T05:40:45Z,42.805,6.029,13.2982,4.60036,2470.171,2020-8-31T07:41:36Z
2020-08-31T05:43:48Z,42.805,6.029,13.2981,4.60003,2470.171,2020-8-31T07:44:39Z
2020-08-31T05:46:52Z,42.805,6.029,13.2982,4.60010,2470.171,2020-8-31T07:47:42Z
2020-08-31T05:49:55Z,42.805,6.029,13.2986,4.60007,2470.156,2020-8-31T07:50:45Z
2020-08-31T05:52:58Z,42.805,6.029,13.2983,4.60024,2470.217,2020-8-31T07:53:49Z
2020-08-31T05:56:01Z,42.805,6.029,13.2978,4.60038,2470.194,2020-8-31T07:56:52Z
2020-08-31T05:59:05Z,42.805,6.029,13.2991,4.60034,2470.18,2020-8-31T07:59:55Z
2020-08-31T06:02:08Z,42.805,6.029,13.2992,4.60019,2470.18,2020-8-31T08:02:58Z
2020-08-31T06:05:11Z,42.805,6.029,13.2979,4.60015,2470.156,2020-8-31T08:06:02Z
2020-08-31T06:08:14Z,42.805,6.029,13.2982,4.60006,2470.171,2020-8-31T08:09:05Z
2020-08-31T06:11:18Z,42.805,6.029,13.2979,4.60024,2470.156,2020-8-31T08:12:08Z
2020-08-31T06:14:21Z,42.805,6.029,13.2982,4.60017,2470.156,2020-8-31T08:15:11Z
2020-08-31T06:17:24Z,42.805,6.029,13.2983,4.60011,2470.156,2020-8-31T08:18:15Z
2020-08-31T06:20:28Z,42.805,6.029,13.2982,4.60002,2470.133,2020-8-31T08:21:18Z
2020-08-31T06:23:31Z,42.805,6.029,13.2982,4.60004,2470.147,2020-8-31T08:24:21Z
2020-08-31T06:26:34Z,42.805,6.029,13.2981,4.60003,2470.133,2020-8-31T08:27:25Z
2020-08-31T06:29:37Z,42.805,6.029,13.2982,4.60005,2470.171,2020-8-31T08:30:28Z
2020-08-31T06:32:41Z,42.805,6.029,13.2984,4.60011,2470.194,2020-8-31T08:33:31Z
2020-08-31T06:35:44Z,42.805,6.029,13.2986,4.60011,2470.18,2020-8-31T08:36:34Z
2020-08-31T06:38:47Z,42.805,6.029,13.2990,4.60022,2470.203,2020-8-31T08:39:38Z
2020-08-31T06:41:50Z,42.805,6.029,13.2979,4.60009,2470.156,2020-8-31T08:42:41Z
2020-08-31T06:44:54Z,42.805,6.029,13.2994,4.60019,2470.18,2020-8-31T08:45:44Z
2020-08-31T06:47:57Z,42.805,6.029,13.2983,4.60009,2470.133,2020-8-31T08:48:47Z
2020-08-31T06:51:00Z,42.805,6.029,13.2983,4.60023,2470.18,2020-8-31T08:51:51Z
2020-08-31T06:54:03Z,42.805,6.029,13.2983,4.60006,2470.171,2020-8-31T08:54:54Z
2020-08-31T06:57:07Z,42.805,6.029,13.2979,4.60014,2470.156,2020-8-31T08:57:57Z
2020-08-31T07:00:10Z,42.805,6.029,13.2980,4.60009,2470.156,2020-8-31T09:01:01Z
2020-08-31T07:03:15Z,42.805,6.029,13.2986,4.60008,2470.133,2020-8-31T09:04:06Z
2020-08-31T07:06:18Z,42.805,6.029,13.2984,4.60011,2470.156,2020-8-31T09:07:09Z
2020-08-31T07:09:22Z,42.805,6.029,13.2986,4.60029,2470.171,2020-8-31T09:10:12Z
2020-08-31T07:12:25Z,42.805,6.029,13.2986,4.60020,2470.171,2020-8-31T09:13:15Z
2020-08-31T07:15:28Z,42.805,6.029,13.2985,4.60019,2470.171,2020-8-31T09:16:19Z
2020-08-31T07:18:31Z,42.805,6.029,13.2991,4.60041,2470.156,2020-8-31T09:19:22Z
2020-08-31T07:21:35Z,42.805,6.029,13.2982,4.60009,2470.133,2020-8-31T09:22:25Z
2020-08-31T07:24:38Z,42.805,6.029,13.2998,4.60016,2470.156,2020-8-31T09:25:28Z
2020-08-31T07:27:41Z,42.805,6.029,13.2983,4.60021,2470.124,2020-8-31T09:28:32Z
2020-08-31T07:30:45Z,42.805,6.029,13.2987,4.60008,2470.171,2020-8-31T09:31:35Z
2020-08-31T07:33:48Z,42.805,6.029,13.2986,4.60011,2470.096,2020-8-31T09:34:39Z
2020-08-31T07:36:51Z,42.805,6.029,13.2983,4.60011,2470.161,2020-8-31T09:37:42Z
2020-08-31T07:39:55Z,42.805,6.029,13.2994,4.60019,2470.147,2020-8-31T09:40:45Z
2020-08-31T07:42:58Z,42.805,6.029,13.2982,4.60024,2470.156,2020-8-31T09:43:48Z
2020-08-31T07:46:01Z,42.805,6.029,13.2983,4.60022,2470.156,2020-8-31T09:46:51Z
2020-08-31T07:49:05Z,42.805,6.029,13.2980,4.60005,2470.133,2020-8-31T09:49:55Z
2020-08-31T07:52:08Z,42.805,6.029,13.2982,4.60016,2470.171,2020-8-31T09:52:58Z
2020-08-31T07:55:11Z,42.805,6.029,13.2981,4.60014,2470.124,2020-8-31T09:56:02Z
2020-08-31T07:58:14Z,42.805,6.029,13.2986,4.60022,2470.133,2020-8-31T09:59:05Z
2020-08-31T08:01:18Z,42.805,6.029,13.2988,4.60010,2470.156,2020-8-31T10:02:08Z
2020-08-31T08:04:21Z,42.805,6.029,13.2986,4.60007,2470.11,2020-8-31T10:05:12Z
2020-08-31T08:07:24Z,42.805,6.029,13.2979,4.60021,2470.119,2020-8-31T10:08:15Z
2020-08-31T08:10:27Z,42.805,6.029,13.2982,4.60007,2470.11,2020-8-31T10:11:18Z
2020-08-31T08:13:31Z,42.805,6.029,13.2982,4.60011,2470.11,2020-8-31T10:14:21Z
2020-08-31T08:16:34Z,42.805,6.029,13.2982,4.60000,2470.133,2020-8-31T10:17:24Z
2020-08-31T08:19:37Z,42.805,6.029,13.2976,4.60016,2470.096,2020-8-31T10:20:28Z
2020-08-31T08:22:40Z,42.805,6.029,13.2983,4.60005,2470.11,2020-8-31T10:23:31Z
2020-08-31T08:25:44Z,42.805,6.029,13.2985,4.60010,2470.147,2020-8-31T10:26:34Z
2020-08-31T08:28:47Z,42.805,6.029,13.2987,4.60014,2470.147,2020-8-31T10:29:38Z
2020-08-31T08:31:50Z,42.805,6.029,13.2978,4.60014,2470.133,2020-8-31T10:32:41Z
2020-08-31T08:34:54Z,42.805,6.029,13.2982,4.60013,2470.1,2020-8-31T10:35:44Z
2020-08-31T08:37:57Z,42.805,6.029,13.2978,4.60021,2470.124,2020-8-31T10:38:47Z
2020-08-31T08:41:00Z,42.805,6.029,13.2976,4.59993,2470.1,2020-8-31T10:41:51Z
2020-08-31T08:44:03Z,42.805,6.029,13.2983,4.60004,2470.124,2020-8-31T10:44:54Z
2020-08-31T08:47:07Z,42.805,6.029,13.2982,4.60002,2470.11,2020-8-31T10:47:57Z
2020-08-31T08:50:10Z,42.805,6.029,13.2979,4.60000,2470.124,2020-8-31T10:51:01Z
2020-08-31T08:53:13Z,42.805,6.029,13.2975,4.59991,2470.124,2020-8-31T10:54:04Z
2020-08-31T08:56:17Z,42.805,6.029,13.2986,4.60016,2470.11,2020-8-31T10:57:07Z
2020-08-31T08:59:20Z,42.805,6.029,13.2974,4.59999,2470.1,2020-8-31T11:00:10Z
2020-08-31T09:02:23Z,42.805,6.029,13.2979,4.60009,2470.11,2020-8-31T11:03:14Z
2020-08-31T09:05:27Z,42.805,6.029,13.2979,4.60003,2470.124,2020-8-31T11:06:18Z
2020-08-31T09:08:30Z,42.805,6.029,13.2989,4.60016,2470.1,2020-8-31T11:09:21Z
2020-08-31T09:11:34Z,42.805,6.029,13.2980,4.59995,2470.077,2020-8-31T11:12:24Z
2020-08-31T09:14:37Z,42.805,6.029,13.2979,4.60006,2470.124,2020-8-31T11:15:27Z
2020-08-31T09:17:40Z,42.805,6.029,13.2979,4.59999,2470.11,2020-8-31T11:18:31Z
2020-08-31T09:20:43Z,42.805,6.029,13.2979,4.60002,2470.087,2020-8-31T11:21:34Z
2020-08-31T09:23:47Z,42.805,6.029,13.2982,4.60001,2470.11,2020-8-31T11:24:37Z
2020-08-31T09:26:50Z,42.805,6.029,13.2977,4.60006,2470.087,2020-8-31T11:27:40Z
2020-08-31T09:29:53Z,42.805,6.029,13.2976,4.59981,2470.11,2020-8-31T11:30:44Z
2020-08-31T09:32:56Z,42.805,6.029,13.2983,4.60011,2470.124,2020-8-31T11:33:47Z
2020-08-31T09:36:00Z,42.805,6.029,13.2976,4.59995,2470.087,2020-8-31T11:36:50Z
2020-08-31T09:39:03Z,42.805,6.029,13.2976,4.59999,2470.1,2020-8-31T11:39:54Z
2020-08-31T09:42:06Z,42.805,6.029,13.2979,4.60001,2470.1,2020-8-31T11:42:57Z
2020-08-31T09:45:10Z,42.805,6.029,13.2982,4.60007,2470.124,2020-8-31T11:46:00Z
2020-08-31T09:48:13Z,42.805,6.029,13.2977,4.60003,2470.1,2020-8-31T11:49:03Z
2020-08-31T09:51:16Z,42.805,6.029,13.2983,4.60010,2470.087,2020-8-31T11:52:06Z
2020-08-31T09:54:19Z,42.805,6.029,13.2984,4.59998,2470.11,2020-8-31T11:55:10Z
2020-08-31T09:57:23Z,42.805,6.029,13.2982,4.60004,2470.1,2020-8-31T11:58:13Z
2020-08-31T10:00:26Z,42.805,6.029,13.2977,4.60014,2470.063,2020-8-31T12:01:16Z
2020-08-31T10:03:29Z,42.805,6.029,13.2978,4.60014,2470.11,2020-8-31T12:04:20Z
2020-08-31T10:06:32Z,42.805,6.029,13.2976,4.59990,2470.04,2020-8-31T12:07:23Z
2020-08-31T10:09:36Z,42.805,6.029,13.2979,4.59994,2470.1,2020-8-31T12:10:26Z
2020-08-31T10:12:39Z,42.805,6.029,13.2982,4.60005,2470.063,2020-8-31T12:13:29Z
2020-08-31T10:15:42Z,42.805,6.029,13.2982,4.60004,2470.04,2020-8-31T12:16:33Z
2020-08-31T10:18:45Z,42.805,6.029,13.2979,4.60000,2470.063,2020-8-31T12:19:36Z
2020-08-31T10:21:49Z,42.805,6.029,13.2982,4.59997,2470.063,2020-8-31T12:22:39Z
2020-08-31T10:24:52Z,42.805,6.029,13.2989,4.59999,2470.077,2020-8-31T12:25:42Z
2020-08-31T10:27:55Z,42.805,6.029,13.2974,4.59993,2470.063,2020-8-31T12:28:46Z
2020-08-31T10:30:59Z,42.805,6.029,13.2975,4.59991,2470.063,2020-8-31T12:31:49Z
2020-08-31T10:34:02Z,42.805,6.029,13.2975,4.59996,2470.053,2020-8-31T12:34:52Z
2020-08-31T10:37:05Z,42.805,6.029,13.2986,4.59996,2470.063,2020-8-31T12:37:55Z
2020-08-31T10:40:08Z,42.805,6.029,13.2979,4.60005,2470.04,2020-8-31T12:40:59Z
2020-08-31T10:43:12Z,42.805,6.029,13.2977,4.60000,2470.053,2020-8-31T12:44:02Z
2020-08-31T10:46:15Z,42.805,6.029,13.2976,4.59988,2470.077,2020-8-31T12:47:05Z
2020-08-31T10:49:18Z,42.805,6.029,13.2981,4.59992,2470.04,2020-8-31T12:50:09Z
2020-08-31T10:52:22Z,42.805,6.029,13.2981,4.59998,2470.063,2020-8-31T12:53:12Z
2020-08-31T10:55:25Z,42.805,6.029,13.2975,4.59999,2470.063,2020-8-31T12:56:15Z
2020-08-31T10:58:28Z,42.805,6.029,13.2974,4.59991,2470.063,2020-8-31T12:59:18Z
2020-08-31T11:01:31Z,42.805,6.029,13.2979,4.59990,2470.04,2020-8-31T13:02:22Z
2020-08-31T11:04:34Z,42.805,6.029,13.2976,4.59994,2470.017,2020-8-31T13:05:25Z
2020-08-31T11:07:38Z,42.805,6.029,13.2986,4.59991,2470.03,2020-8-31T13:08:28Z
2020-08-31T11:10:41Z,42.805,6.029,13.2979,4.59988,2470.04,2020-8-31T13:11:31Z
2020-08-31T11:13:44Z,42.805,6.029,13.2976,4.59991,2469.993,2020-8-31T13:14:35Z
2020-08-31T11:16:48Z,42.805,6.029,13.2972,4.59983,2470.017,2020-8-31T13:17:38Z
2020-08-31T11:19:51Z,42.805,6.029,13.2980,4.59989,2470.017,2020-8-31T13:20:41Z
2020-08-31T11:22:54Z,42.805,6.029,13.2974,4.59988,2469.993,2020-8-31T13:23:45Z
2020-08-31T11:25:57Z,42.805,6.029,13.2974,4.60001,2470.017,2020-8-31T13:26:48Z
2020-08-31T11:29:01Z,42.805,6.029,13.2981,4.60002,2470.03,2020-8-31T13:29:51Z
2020-08-31T11:32:04Z,42.805,6.029,13.2977,4.60002,2470.04,2020-8-31T13:32:54Z
2020-08-31T11:35:07Z,42.805,6.029,13.2974,4.59999,2469.993,2020-8-31T13:35:58Z
2020-08-31T11:38:11Z,42.805,6.029,13.2980,4.60000,2470.007,2020-8-31T13:39:01Z
2020-08-31T11:41:14Z,42.805,6.029,13.2980,4.60005,2470.017,2020-8-31T13:42:04Z
2020-08-31T11:44:17Z,42.805,6.029,13.2977,4.59988,2470.03,2020-8-31T13:45:08Z
2020-08-31T11:47:21Z,42.805,6.029,13.2976,4.59995,2469.993,2020-8-31T13:48:11Z
2020-08-31T11:50:24Z,42.805,6.029,13.2976,4.59986,2469.993,2020-8-31T13:51:14Z
2020-08-31T11:53:27Z,42.805,6.029,13.2982,4.59996,2469.993,2020-8-31T13:54:17Z
2020-08-31T11:56:30Z,42.805,6.029,13.2981,4.59992,2470.017,2020-8-31T13:57:21Z
2020-08-31T11:59:34Z,42.805,6.029,13.2980,4.59990,2470.007,2020-8-31T14:00:25Z
2020-08-31T12:02:37Z,42.805,6.029,13.2976,4.59991,2470.053,2020-8-31T14:03:28Z
2020-08-31T12:05:41Z,42.805,6.029,13.2979,4.59983,2470.017,2020-8-31T14:06:31Z
2020-08-31T12:08:44Z,42.805,6.029,13.2972,4.59989,2469.993,2020-8-31T14:09:34Z
2020-08-31T12:11:47Z,42.805,6.029,13.2984,4.59994,2470.017,2020-8-31T14:12:38Z
2020-08-31T12:14:50Z,42.805,6.029,13.2981,4.59986,2470.007,2020-8-31T14:15:41Z
2020-08-31T12:17:54Z,42.805,6.029,13.2980,4.59999,2470.017,2020-8-31T14:18:44Z
2020-08-31T12:20:57Z,42.805,6.029,13.2976,4.59991,2470.007,2020-8-31T14:21:47Z
2020-08-31T12:24:00Z,42.805,6.029,13.2982,4.59984,2470.017,2020-8-31T14:24:51Z
2020-08-31T12:27:03Z,42.805,6.029,13.2973,4.59988,2469.993,2020-8-31T14:27:54Z
2020-08-31T12:30:07Z,42.805,6.029,13.2979,4.59989,2469.993,2020-8-31T14:30:57Z
2020-08-31T12:33:10Z,42.805,6.029,13.2972,4.59987,2470.03,2020-8-31T14:34:00Z
2020-08-31T12:36:13Z,42.805,6.029,13.2974,4.59981,2470.017,2020-8-31T14:37:04Z
2020-08-31T12:39:17Z,42.805,6.029,13.2981,4.59985,2470.03,2020-8-31T14:40:07Z
2020-08-31T12:42:20Z,42.805,6.029,13.2979,4.59999,2470.053,2020-8-31T14:43:11Z
2020-08-31T12:45:24Z,42.805,6.029,13.2974,4.59988,2470.03,2020-8-31T14:46:15Z
2020-08-31T12:48:27Z,42.805,6.029,13.2977,4.59988,2470.03,2020-8-31T14:49:18Z
2020-08-31T12:51:31Z,42.805,6.029,13.2979,4.59992,2469.993,2020-8-31T14:52:21Z
2020-08-31T12:54:34Z,42.805,6.029,13.2978,4.59988,2470.03,2020-8-31T14:55:24Z
2020-08-31T12:57:37Z,42.805,6.029,13.2975,4.59981,2470.053,2020-8-31T14:58:28Z
2020-08-31T13:00:41Z,42.805,6.029,13.2976,4.59985,2470.04,2020-8-31T15:01:31Z
2020-08-31T13:03:44Z,42.805,6.029,13.2971,4.59984,2469.993,2020-8-31T15:04:34Z
2020-08-31T13:06:47Z,42.805,6.029,13.2981,4.59984,2470.007,2020-8-31T15:07:38Z
2020-08-31T13:09:50Z,42.805,6.029,13.2975,4.59987,2470.04,2020-8-31T15:10:41Z
2020-08-31T13:12:55Z,42.805,6.029,13.2975,4.59984,2470.017,2020-8-31T15:13:45Z
2020-08-31T13:15:58Z,42.805,6.029,13.2975,4.59996,2469.993,2020-8-31T15:16:48Z
2020-08-31T13:19:01Z,42.805,6.029,13.2978,4.59993,2470.03,2020-8-31T15:19:52Z
2020-08-31T13:22:05Z,42.805,6.029,13.2974,4.59988,2469.993,2020-8-31T15:22:55Z
2020-08-31T13:25:08Z,42.805,6.029,13.2974,4.59984,2470.017,2020-8-31T15:25:59Z
2020-08-31T13:28:12Z,42.805,6.029,13.2980,4.59988,2470.063,2020-8-31T15:29:02Z
2020-08-31T13:31:15Z,42.805,6.029,13.2977,4.59986,2470.017,2020-8-31T15:32:05Z
2020-08-31T13:34:18Z,42.805,6.029,13.2976,4.59983,2470.053,2020-8-31T15:35:09Z
2020-08-31T13:37:23Z,42.805,6.029,13.2976,4.59996,2470.04,2020-8-31T15:38:13Z
2020-08-31T13:40:26Z,42.805,6.029,13.2979,4.59993,2470.017,2020-8-31T15:41:17Z
2020-08-31T13:43:30Z,42.805,6.029,13.2976,4.59988,2470.017,2020-8-31T15:44:20Z
2020-08-31T13:46:33Z,42.805,6.029,13.2973,4.59991,2470.03,2020-8-31T15:47:23Z
2020-08-31T13:49:36Z,42.805,6.029,13.2977,4.59991,2470.017,2020-8-31T15:50:27Z
2020-08-31T13:52:39Z,42.805,6.029,13.2978,4.59984,2470.053,2020-8-31T15:53:30Z
2020-08-31T13:55:43Z,42.805,6.029,13.2975,4.59987,2469.984,2020-8-31T15:56:33Z
2020-08-31T13:58:46Z,42.805,6.029,13.2979,4.59982,2470.03,2020-8-31T15:59:37Z
2020-08-31T14:01:49Z,42.805,6.029,13.2979,4.59991,2470.03,2020-8-31T16:02:40Z
2020-08-31T14:04:53Z,42.805,6.029,13.2979,4.60002,2470.04,2020-8-31T16:05:43Z
2020-08-31T14:07:56Z,42.805,6.029,13.2975,4.59997,2469.993,2020-8-31T16:08:46Z
2020-08-31T14:10:59Z,42.805,6.029,13.2982,4.59992,2470.017,2020-8-31T16:11:50Z
2020-08-31T14:14:03Z,42.805,6.029,13.2983,4.59984,2470.063,2020-8-31T16:14:53Z
2020-08-31T14:17:06Z,42.805,6.029,13.2980,4.59986,2470.04,2020-8-31T16:17:57Z
2020-08-31T14:20:10Z,42.805,6.029,13.2976,4.59980,2470.04,2020-8-31T16:21:00Z
2020-08-31T14:23:13Z,42.805,6.029,13.2980,4.59987,2470.063,2020-8-31T16:24:03Z
2020-08-31T14:26:16Z,42.805,6.029,13.2976,4.59989,2470.017,2020-8-31T16:27:07Z
2020-08-31T14:29:21Z,42.805,6.029,13.2978,4.59991,2470.1,2020-8-31T16:30:11Z
2020-08-31T14:32:24Z,42.805,6.029,13.2979,4.59986,2470.087,2020-8-31T16:33:15Z
2020-08-31T14:35:28Z,42.805,6.029,13.2976,4.59984,2470.1,2020-8-31T16:36:18Z
2020-08-31T14:38:31Z,42.805,6.029,13.2975,4.59985,2470.077,2020-8-31T16:39:21Z
2020-08-31T14:41:34Z,42.805,6.029,13.2974,4.59992,2470.017,2020-8-31T16:42:24Z
2020-08-31T14:44:37Z,42.805,6.029,13.2974,4.59985,2470.04,2020-8-31T16:45:28Z
2020-08-31T14:47:41Z,42.805,6.029,13.2973,4.59983,2470.063,2020-8-31T16:48:31Z
2020-08-31T14:50:44Z,42.805,6.029,13.2979,4.60010,2470.063,2020-8-31T16:51:34Z
2020-08-31T14:53:47Z,42.805,6.029,13.2977,4.60005,2470.077,2020-8-31T16:54:38Z
2020-08-31T14:56:50Z,42.805,6.029,13.2977,4.59991,2470.063,2020-8-31T16:57:41Z
2020-08-31T14:59:54Z,42.805,6.029,13.2978,4.59992,2470.053,2020-8-31T17:00:44Z
2020-08-31T15:02:57Z,42.805,6.029,13.2979,4.59987,2470.077,2020-8-31T17:03:48Z
2020-08-31T15:06:00Z,42.805,6.029,13.2976,4.59985,2470.063,2020-8-31T17:06:51Z
2020-08-31T15:09:04Z,42.805,6.029,13.2983,4.60002,2470.087,2020-8-31T17:09:54Z
2020-08-31T15:12:07Z,42.805,6.029,13.2976,4.59984,2470.087,2020-8-31T17:12:57Z
2020-08-31T15:15:10Z,42.805,6.029,13.2977,4.59986,2470.087,2020-8-31T17:16:01Z